Location: Bakhuizen
(52.8696°N, 5.4575°E)
Time: 17:15:39
(UTC+00:00)

Cosmos 1833 - Pass Details

Date: 28 September 2021
Orbit: 835 x 864 km, 70.9° (Epoch: 21 October)

Event Time Altitude Azimuth Distance (km) Brightness Sun altitude
Rises 18:45:26 0° 326° (NNW) 3,402 8.1 -13.3°
Reaches altitude 10° 18:47:55 10° 324° (NW) 2,461 7.4 -13.7°
Maximum altitude 18:53:27 62° 245° (WSW) 943 4.7 -14.5°
Drops below altitude 10° 18:58:58 10° 166° (SSE) 2,442 6.3 -15.3°
Enters shadow 19:00:33 - 164° (SSE) 3,040 6.8 -15.5°
